STARLINK-1548, 46054

Orbit data source: Space-Track

STARLINK-1548, 46054 is a payload satellite owned by SpaceX/Seattle (US) in LEO that was launched on Fri, 07 Aug 2020 UTC via an FALCON 9 launch vehicle from the Air Force Eastern Test Range (AFETR). Payloads include a variety of satellites, spacecraft, and rockets equipped with specific instruments for various scientific and technological missions. These include communications satellites like Starlink; space stations such as the ISS; scientific satellites like the Hubble; Earth observation satellites from companies like Planet Labs, Umbra, and HawkEye 360; GPS; miniature CubeSats for education and research; and military/defense satellites.

Loading next visibility...
STARLINK-1548 details
Identifier
46054, 2020-055AD
Orbit
LEO
Last TLE update8 hours ago
Origin
Flag of USSpaceX/Seattle (US)
ManufacturerSpaceX/Seattle
MissionOperational Commercial Communications
Bus & MotorSTARLINK, Unknown motor
Mass260 kg wet, ~248 kg dry
Launch date (UTC)
2020-08-07 (4 years ago)
Launch vehicle
FALCON 9
Launch site
Air Force Eastern Test Range (AFETR)
Object type
Payload
Rocket body
Debris
Shape & HBRBox + 1 Pan, 8.86 m
Radar Cross Section13.562 m², Large (>1 m²)

Expand to show TLE details & history

TLE from 8 hours ago
0 STARLINK-1548
1 46054U 20055AD  24361.07726076  .00011952  00000-0  81965-3 0  9992
2 46054  53.0538 285.6228 0001416  95.6113 264.5038 15.06410520242386
Epoch: 2024-12-26T01:51Z
Definitive object data (Epoch: 2024-12-26T01:51:15.329Z)
Latitude0.00001°
Longitude162.7471°
Altitude548.152 km
Speed7.589 km/s
True Right ascension19h 02m 29s
True Declination0° 00' 00"
Sunlit
Object was in daylight at TLE epoch
Visualization TLE readout
Latitude24.41685°
Longitude-178.91841°
Altitude547.646 km
Speed7.592 km/s
Apparent Right ascension20h 43m 05s
Apparent Declination-6° 17' 22"
Sunlit
Object is in daylight
Visualization observer readout
Local Sidereal Time09:18:16
Azimuth15.544° NNE
Elevation-55.457°
Doppler factor1
Orbital elements
Apogee altitude548.431 km
Perigee altitude546.469 km
Semi-major axis6,925.587 km
Eccentricity0.0001416
Inclination53.0538°
RAAN285.6228°
Arg. of periapsis95.6113°
True anomaly264.48765°
Mean anomaly264.5038°
Eccentric anomaly264.49572°
Mean motion3.76581 °/min
BSTAR0.00081965
Orbital period95.6 mins
Loading maneuver chart data...
Loading historical data...
Loading historical data...
Loading historical data...
Loading historical data...
Loading historical data...
Loading historical data...
Loading historical data...

STARLINK-1548 Visibility forecast

Observer location: undefined°, undefined

Span
Click to sort rows by Start time (UTC) header in descending order
Start Az.
Max El. time (UTC)
Max El. Az.
Max El.
End time (UTC)
End Az.
6 mins2024-12-26 21:07:09.773Z189.168° SSW2024-12-26 21:10:09.773Z126.486° SE28.09°2024-12-26 21:13:09.773Z71.345° E
6 mins2024-12-26 22:47:09.773Z271.203° WNW2024-12-26 22:49:09.773Z317.448° NNW31.339°2024-12-26 22:53:09.773Z37.379° NE
5 mins2024-12-27 03:49:09.773Z336.975° NNW2024-12-27 03:51:09.773Z26.868° NE31.043°2024-12-27 03:54:09.773Z93.622° ESE
6 mins2024-12-27 05:28:09.773Z284.263° WNW2024-12-27 05:31:09.773Z214.791° SW28.392°2024-12-27 05:34:09.773Z165.096° S
|